Miami, FL

8:21 PM EDT on August 31, 2016 (GMT -0400)
Kendall-Tamiami Executive

Weather History for KTMB - March, 2014

Change the Weather History Date:

Wednesday, March 26, 2014

  Actual Average Record
Temperature  
Mean Temperature 65 °F -  
Max Temperature 73 °F 80 °F 88 °F (2015)
Min Temperature 57 °F 59 °F 45 °F (2006)
Growing Degree Days 15 (Base 50)    
Moisture  
Dew Point 50 °F    
Average Humidity 60    
Maximum Humidity 81    
Minimum Humidity 40    
Precipitation  
Precipitation 0.00 in - - ()
Sea Level Pressure  
Sea Level Pressure 30.17 in    
Wind  
Wind Speed 14 mph (NNE)    
Max Wind Speed 18 mph    
Max Gust Speed 25 mph    
Visibility 10 miles    
Events      
Averages and records for this station are not official NWS values.
T = Trace of Precipitation, MM = Missing Value Source: NWS Daily Summary

Daily Weather History Graph

Daily Weather History Graph

Search for Another Location

Airport or City:

Trip Planner

Search our weather history database for the weather conditions in past years. The results will help you decide how hot, cold, wet, or windy it might be!

Date:

Astronomy

Mar. 26, 2014 Rise Set
Actual Time 7:19 AM EDT 7:35 PM EDT
Civil Twilight 6:56 AM EDT 7:58 PM EDT
Nautical Twilight 6:29 AM EDT 8:25 PM EDT
Astronomical Twilight 6:02 AM EDT 8:52 PM EDT
Moon 4:01 AM EDT (3/26) 3:35 PM EDT (3/26)
Length of Visible Light 13h 02m
Length of Day
12h 16m
Waning Crescent, 22% of the Moon is Illuminated
Mar 26
Waning Crescent
Mar 30
New
Apr 7
First Quarter
Apr 15
Full
Apr 22
Last Quarter

Hourly Weather History & Observations

Time (EDT) Temp. Dew Point Humidity Pressure Visibility Wind Dir Wind Speed Gust Speed Precip Events Conditions
12:53 AM 63.0 °F 55.0 °F 75% 30.05 in 10.0 mi NW 16.1 mph - N/A   Clear
1:53 AM 62.1 °F 53.1 °F 72% 30.06 in 10.0 mi NNW 15.0 mph - N/A   Clear
2:53 AM 61.0 °F 51.1 °F 70% 30.06 in 10.0 mi NW 17.3 mph - N/A   Clear
3:53 AM 60.1 °F 50.0 °F 69% 30.07 in 10.0 mi NW 12.7 mph - N/A   Clear
4:53 AM 59.0 °F 50.0 °F 72% 30.08 in 10.0 mi NNW 15.0 mph - N/A   Clear
5:53 AM 57.9 °F 50.0 °F 75% 30.09 in 10.0 mi North 12.7 mph - N/A   Clear
6:53 AM 57.0 °F 44.1 °F 62% 30.13 in 10.0 mi North 15.0 mph - N/A   Clear
7:53 AM 57.0 °F 37.0 °F 47% 30.15 in 10.0 mi North 15.0 mph - N/A   Clear
8:53 AM 57.9 °F 41.0 °F 53% 30.19 in 10.0 mi North 18.4 mph 25.3 mph N/A   Clear
9:53 AM 61.0 °F 43.0 °F 52% 30.20 in 10.0 mi NNE 18.4 mph - N/A   Clear
10:53 AM 63.0 °F 44.1 °F 50% 30.23 in 10.0 mi North 17.3 mph - N/A   Clear
11:53 AM 66.9 °F 44.1 °F 44% 30.23 in 10.0 mi NNE 18.4 mph 24.2 mph N/A   Clear
12:53 PM 69.1 °F 45.0 °F 42% 30.21 in 10.0 mi NNE 12.7 mph 25.3 mph N/A   Clear
1:53 PM 72.0 °F 46.0 °F 40% 30.20 in 10.0 mi NE 11.5 mph - N/A   Clear
2:53 PM 73.0 °F 48.9 °F 42% 30.19 in 10.0 mi East 13.8 mph 21.9 mph N/A   Clear
3:53 PM 73.0 °F 51.1 °F 46% 30.19 in 10.0 mi East 17.3 mph 21.9 mph N/A   Clear
4:53 PM 73.0 °F 55.0 °F 53% 30.19 in 10.0 mi NE 13.8 mph - N/A   Partly Cloudy
5:53 PM 72.0 °F 54.0 °F 53% 30.20 in 10.0 mi NE 9.2 mph - N/A   Scattered Clouds
6:53 PM 68.0 °F 55.9 °F 65% 30.21 in 10.0 mi NE 11.5 mph - N/A   Clear
7:53 PM 66.9 °F 54.0 °F 63% 30.22 in 10.0 mi ENE 10.4 mph - N/A   Partly Cloudy
8:19 PM 68.0 °F 54.0 °F 61% 30.22 in 10.0 mi NE 10.4 mph - N/A   Mostly Cloudy
8:53 PM 66.9 °F 55.0 °F 66% 30.22 in 10.0 mi ENE 11.5 mph - N/A   Scattered Clouds
9:53 PM 64.9 °F 55.0 °F 70% 30.25 in 10.0 mi NE 6.9 mph - N/A   Clear
10:53 PM 63.0 °F 57.0 °F 81% 30.25 in 10.0 mi NNE 6.9 mph - N/A   Scattered Clouds
11:53 PM 64.0 °F 57.0 °F 78% 30.24 in 10.0 mi NNE 5.8 mph - N/A   Mostly Cloudy